DateTimeUTC,F1_A11,F1_S11,BsB_S11,BsG_S11,BsR_S11,BbsB_S11,BbsG_S11,BbsR_S11,BaB_A11,BaG_A11,BaR_A11,Tu_S11,T_S11,Uu_S11,U_S11,P_S11,T1_A11
2021-11-03T18:00:00Z,00000200,21000000,,,,,,,-000.35,-000.02,0000.28,19.2,26.0,00.3,00.2,0644.3,31.1
2021-11-03T18:01:00Z,00000200,21000000,,,,,,,0000.03,-000.07,-000.39,19.2,26.0,00.3,00.2,0644.3,31.1
2021-11-03T18:02:00Z,00000200,21000000,,,,,,,0000.13,-000.01,0000.23,19.2,26.0,00.1,00.1,0644.3,31.1
2021-11-03T18:03:00Z,00000200,61000000,,,,,,,-000.16,-000.23,-000.17,19.2,26.0,,00.0,0644.3,31.1
2021-11-03T18:04:00Z,00000200,41000000,-000.08,0000.08,-000.23,0000.20,0000.22,0000.13,0000.25,0000.64,0000.06,19.2,25.8,00.4,00.2,0645.2,31.1
2021-11-03T18:05:00Z,00000200,01000000,-000.06,-000.04,0000.20,-000.29,0000.06,-000.13,0000.05,0000.14,-000.09,19.3,25.8,00.3,00.2,0645.3,31.1
2021-11-03T18:06:00Z,00000200,01000000,0000.58,0000.36,-000.09,-000.20,0000.12,0000.40,0000.16,0000.14,0000.60,19.4,25.8,00.5,00.3,0645.3,31.2
2021-11-03T18:07:00Z,00000200,01000000,0000.91,0000.36,0000.13,0001.04,0000.01,0000.11,0000.33,0000.08,-000.12,19.5,25.9,00.3,00.2,0645.3,31.2
2021-11-03T18:08:00Z,00000200,01000000,0000.33,0000.03,-000.03,-000.07,0000.12,-000.12,0000.17,-000.06,0000.52,19.6,25.9,00.4,00.3,0645.3,31.2
2021-11-03T18:09:00Z,00000200,01000000,0000.96,0000.01,0000.05,0000.81,0000.36,-000.65,-000.21,-000.19,-000.07,19.7,25.9,00.3,00.2,0645.3,31.2
2021-11-03T18:10:00Z,00000200,01000000,0000.19,0000.42,-000.16,0000.30,0000.04,0000.06,-000.01,0000.21,-000.38,19.7,26.0,00.3,00.2,0645.3,31.2
2021-11-03T18:11:00Z,00000200,01000000,0000.48,0000.27,0000.26,0000.31,0000.14,-000.16,0000.35,0000.17,0000.19,19.7,26.0,00.3,00.2,0645.3,31.2
2021-11-03T18:12:00Z,00000200,01000000,0000.84,0000.08,-000.31,0000.60,0000.04,0000.10,-000.20,-000.05,-000.08,19.6,25.9,00.3,00.2,0645.3,31.2
2021-11-03T18:13:00Z,00000200,01000000,0000.18,0000.43,0000.07,-000.12,0000.12,0000.09,-000.05,-000.26,-000.08,19.6,25.9,00.4,00.3,0645.4,31.2
2021-11-03T18:14:00Z,00000200,01000000,0000.65,-000.07,-000.04,-000.49,0000.12,-000.42,0000.18,0000.15,0000.19,19.5,25.9,00.4,00.3,0645.4,31.1
2021-11-03T18:15:00Z,00000200,01000000,0001.26,0000.38,-000.03,0000.20,0000.07,0000.17,-000.17,0000.17,0000.12,19.5,25.8,00.3,00.2,0645.4,31.1
2021-11-03T18:16:00Z,00000200,01000000,-000.15,-000.03,-000.01,0000.46,0000.01,0000.00,0000.09,-000.08,-000.03,19.4,25.8,00.3,00.2,0645.4,31.1
2021-11-03T18:17:00Z,00000200,01000000,0000.75,0000.17,0000.01,0000.08,-000.06,0000.52,0000.07,-000.21,-000.26,19.4,25.8,00.3,00.2,0645.4,31.1
2021-11-03T18:18:00Z,00000200,01000000,-000.37,0000.27,-000.16,-000.38,0000.14,-000.27,-000.43,0000.01,0000.12,19.3,25.8,00.3,00.2,0645.4,31.1
2021-11-03T18:19:00Z,00000200,01000000,0000.99,0000.34,-000.02,0000.17,0000.29,-000.04,0000.37,0000.21,-000.07,19.4,25.8,00.3,00.2,0645.5,31.2
2021-11-03T18:20:00Z,00000200,01000000,0000.62,-000.14,0000.16,-000.08,0000.61,0000.20,0000.13,0000.22,0000.31,19.4,25.8,00.3,00.2,0645.5,31.1
2021-11-03T18:21:00Z,00000200,01000000,0001.19,0000.04,-000.32,0000.12,-000.10,0000.05,-000.09,0000.02,-000.08,19.5,25.8,00.2,00.2,0645.5,31.2
2021-11-03T18:22:00Z,00000200,01000000,0000.89,0000.03,-000.12,0000.54,0000.23,-000.24,0000.12,0000.08,0000.08,19.6,25.9,00.3,00.2,0645.5,31.2
2021-11-03T18:23:00Z,00000200,01000000,-000.25,0000.13,0000.07,-000.24,0000.07,0000.18,-000.03,0000.07,0000.13,19.6,25.9,00.2,00.2,0645.5,31.2
2021-11-03T18:24:00Z,00000200,01000000,0000.30,0000.21,0000.13,0000.69,-000.06,0000.41,0000.08,-000.19,-000.08,19.6,25.9,00.3,00.2,0645.5,31.2
2021-11-03T18:25:00Z,00000200,01000000,0001.60,0000.13,-000.07,-000.21,0000.15,0000.25,0000.15,0000.18,-000.30,19.5,25.9,00.2,00.1,0645.5,31.2
2021-11-03T18:26:00Z,00000200,01000000,0001.10,-000.08,-000.24,0000.39,0000.11,0000.05,-000.03,-000.12,0000.27,19.5,25.8,00.2,00.1,0645.5,31.1
2021-11-03T18:27:00Z,00000200,01000000,0000.76,0000.20,0000.24,-000.46,-000.22,-000.11,-000.59,-000.17,-000.41,19.4,25.8,00.2,00.1,0645.5,31.2
2021-11-03T18:28:00Z,00000200,01000000,0000.14,0000.12,0000.11,0000.48,0000.41,0000.22,0000.51,-000.05,0000.11,19.4,25.8,00.1,00.1,0645.6,31.1
2021-11-03T18:29:00Z,00000200,01000000,0000.52,0000.33,-000.12,0000.48,0000.24,0000.17,-000.23,0000.02,-000.17,19.3,25.8,00.1,00.1,0645.6,31.1
2021-11-03T18:30:00Z,00000200,01000000,0000.61,0000.02,-000.19,0000.18,0000.25,0000.11,0000.01,-000.07,0000.16,19.3,25.8,00.1,00.1,0645.6,31.1
2021-11-03T18:31:00Z,00000200,01000000,0001.48,0000.38,-000.14,-000.53,-000.00,0000.22,-000.15,0000.07,0000.02,19.2,25.7,00.1,00.1,0645.6,31.1
2021-11-03T18:32:00Z,00000200,01000000,0000.04,-000.09,0000.13,-000.69,-000.12,0000.02,0000.29,-000.35,-000.19,19.2,25.7,00.1,00.1,0645.6,31.1
2021-11-03T18:33:00Z,00000200,01000000,0000.55,0000.30,-000.04,0000.11,0000.40,0000.09,-000.26,0000.34,0000.31,19.2,25.7,00.1,00.1,0645.6,31.1
2021-11-03T18:34:00Z,00000200,01000000,0000.33,0000.09,-000.02,-000.53,0000.07,-000.17,0000.12,-000.42,0000.04,19.2,25.7,00.1,00.1,0645.6,31.1
2021-11-03T18:35:00Z,00000200,01000000,0000.32,0000.06,0000.10,0000.40,0000.29,-000.25,0000.15,0000.37,-000.23,19.3,25.7,00.1,00.1,0645.6,31.1
2021-11-03T18:36:00Z,00000200,01000000,-000.15,0000.32,0000.24,-000.23,-000.13,0000.02,-000.11,0000.09,0000.09,19.4,25.8,00.1,00.1,0645.7,31.2
2021-11-03T18:37:00Z,00000200,01000000,-000.28,0000.39,0000.28,-000.28,-000.11,0000.15,0000.07,0000.04,-000.12,19.5,25.8,00.1,00.1,0645.7,31.2
2021-11-03T18:38:00Z,00000200,01000000,0000.19,0000.32,0000.23,-000.17,0000.05,0000.15,0000.08,0000.40,0000.23,19.5,25.8,00.1,00.1,0645.7,31.2
2021-11-03T18:39:00Z,00000200,01000000,0000.56,0000.18,-000.05,0000.16,0000.02,0000.14,-000.19,-000.44,-000.17,19.6,25.9,00.1,00.0,0645.7,31.2
2021-11-03T18:40:00Z,00000200,01000000,0000.55,-000.18,-000.11,-000.22,-000.04,-000.03,-000.11,0000.01,-000.23,19.6,25.9,00.1,00.0,0645.7,31.2
2021-11-03T18:41:00Z,00000200,01000000,0000.31,0000.17,-000.26,-000.63,0000.06,-000.23,-000.14,-000.25,0000.22,19.5,25.9,00.0,00.0,0645.7,31.2
2021-11-03T18:42:00Z,00000200,01000000,0000.75,-000.01,0000.02,0000.15,-000.07,0000.22,0000.18,0000.05,-000.15,19.5,25.8,00.0,00.0,0645.7,31.2
2021-11-03T18:43:00Z,00000200,01000000,0000.55,-000.11,0000.28,-000.21,0000.16,0000.09,-000.22,0000.05,0000.24,19.4,25.8,00.0,00.0,0645.7,31.1
2021-11-03T18:44:00Z,00000200,01000000,0000.52,0000.06,-000.24,-000.34,0000.06,-000.11,0000.02,-000.01,-000.15,19.4,25.8,00.0,00.0,0645.7,31.1
2021-11-03T18:45:00Z,00000200,01000000,0000.61,0000.35,-000.04,-000.39,-000.12,-000.22,0000.03,-000.07,-000.27,19.3,25.8,00.0,00.0,0645.7,31.1
2021-11-03T18:46:00Z,00000200,01000000,0001.02,-000.05,0000.19,0000.08,0000.02,0000.03,0000.04,-000.09,0000.27,19.3,25.8,00.0,00.0,0645.8,31.1
2021-11-03T18:47:00Z,00000200,01000000,0000.20,0000.23,-000.12,0000.20,-000.09,-000.02,0000.07,0000.05,-000.26,19.3,25.7,00.0,00.0,0645.8,31.1
2021-11-03T18:48:00Z,00000200,01000000,0000.49,-000.25,0000.49,-000.09,0000.12,0000.36,-000.17,-000.28,0000.14,19.2,25.7,00.0,00.0,0645.8,31.1
2021-11-03T18:49:00Z,00000200,01000000,0000.58,0000.20,-000.46,-000.22,0000.08,-000.09,0000.04,0000.29,0000.28,19.3,25.7,00.0,00.0,0645.8,31.1
2021-11-03T18:50:00Z,00000200,01000000,-000.01,-000.04,0000.12,0000.23,0000.06,-000.03,-000.26,0000.01,-000.45,19.3,25.7,00.0,00.0,0645.9,31.1
2021-11-03T18:51:00Z,00000200,01000000,0000.52,0000.19,-000.17,-000.01,-000.28,-000.17,0000.16,-000.09,0000.20,19.4,25.8,00.0,00.0,0645.8,31.2
2021-11-03T18:52:00Z,00000200,01000000,0000.21,-000.05,-000.27,-000.26,-000.35,-000.07,0000.26,0000.36,0000.02,19.4,25.8,00.0,00.0,0645.9,31.2
2021-11-03T18:53:00Z,00000200,01000000,-000.50,0000.12,0000.29,0000.41,-000.00,0000.06,-000.11,-000.11,0000.21,19.4,25.8,00.0,00.0,0645.9,31.2
2021-11-03T18:54:00Z,00000200,01000000,0000.80,-000.09,-000.16,-000.17,-000.25,-000.19,0000.18,-000.36,-000.32,19.4,25.8,00.0,00.0,0645.9,31.1
2021-11-03T18:55:00Z,00000200,01000000,0000.36,0000.05,0000.11,0000.32,0000.28,0000.02,-000.29,0000.23,-000.17,19.4,25.8,00.0,00.0,0645.9,31.1
2021-11-03T18:56:00Z,00000200,01000000,0001.03,0000.05,-000.08,-000.12,0000.11,0000.18,0000.01,-000.05,0000.04,19.3,25.8,00.0,00.0,0645.9,31.1
2021-11-03T18:57:00Z,00000200,41000000,,,,,,,0001.07,0000.78,0000.71,19.3,25.8,,00.0,0646.0,31.1
2021-11-03T18:58:00Z,00000200,61000000,,,,,,,-000.87,-000.43,-000.13,19.0,25.8,,00.0,0645.0,31.1
2021-11-03T18:59:00Z,00000200,21000000,,,,,,,0000.11,-000.74,-000.54,18.9,25.9,,00.0,0645.0,31.1
